Location: Dalton Gardens
(47.7327°N, 116.7697°W)
Time: 00:29:49
(UTC+00:00)

Envisat - Pass Details

Date: 06 December 2022
Orbit: 763 x 765 km, 98.2° (Epoch: 08 February)

Event Time Altitude Azimuth Distance (km) Brightness Sun altitude
Rises 12:27:17 0° 11° (N) 3,246 6.3 -28.2°
Reaches altitude 10° 12:29:37 10° 8° (N) 2,315 5.5 -27.8°
Enters shadow 12:31:16 21° 5° (N) 1,682 4.7 -27.5°
